Tracking 32418 objects as of 9-Dec-2025
HD Live streaming from Space Station
objects crossing your sky now

RADUGA 1-5

Track RADUGA 1-5 now!
RADUGA 1-5 is classified as:


NORAD ID: 26477
Int'l Code: 2000-049A
Perigee: 35,787.8 km
Apogee: 35,792.5 km
Inclination: 13.9 °
Period: 1,435.9 minutes
Semi major axis: 42161 km
RCS: 10 m2 (large)
Launch date: August 28, 2000
Source: Commonwealth of Independent States (former USSR) (CIS)
Launch site: TYURATAM MISSILE AND SPACE COMPLEX (TTMTR)

Military communication.
Your satellite tracking list
Your tracking list is empty




NASA's NSSDC Master Catalog

Two Line Element Set (TLE):
1 26477U 00049A   25343.51509999 -.00000352  00000-0  00000-0 0  9994
2 26477  13.8597   9.4688 0000557 174.6599 185.0876  1.00284648 92519
Source of the keplerian elements: AFSPC